Weather History for Okeechobee, FL

Change the Weather History Date:

Wednesday, February 13, 2013

  Actual Average Record
Temperature  
Mean Temperature 76 °F -  
Max Temperature 87 °F 74 °F 87 °F (2013)
Min Temperature 66 °F 51 °F 32 °F (1985)
Cooling Degree Days 12    
Growing Degree Days 26 (Base 50)    
Moisture  
Dew Point 67 °F    
Average Humidity 81    
Maximum Humidity 100    
Minimum Humidity 43    
Precipitation  
Precipitation 0.00 in - - ()
Sea Level Pressure  
Sea Level Pressure 29.96 in    
Wind  
Wind Speed 9 mph (SSW)    
Max Wind Speed 22 mph    
Max Gust Speed 29 mph    
Visibility 8 miles    
Events      
Averages and records for this station are not official NWS values.
T = Trace of Precipitation, MM = Missing Value Source: NWS Daily Summary

Daily Weather History Graph

Daily Weather History Graph

Search for Another Location

Airport:

Trip Planner

Search our weather history database for the weather conditions in past years. The results will help you decide how hot, cold, wet, or windy it might be!

Date:

Astronomy

Feb. 13, 2013 Rise Set
Actual Time 7:01 AM EST 6:14 PM EST
Civil Twilight 6:37 AM EST 6:37 PM EST
Nautical Twilight 6:10 AM EST 7:05 PM EST
Astronomical Twilight 5:43 AM EST 7:32 PM EST
Moon 8:54 AM EST (2/13) 9:47 PM EST (2/13)
Length of Visible Light 12h 00m
Length of Day
11h 12m
Waxing Crescent, 13% of the Moon is Illuminated
Feb 13
Waxing Crescent
Feb 17
First Quarter
Feb 25
Full
Mar 4
Last Quarter
Mar 11
New

Hourly Weather History & Observations

Time (EST) Temp. Heat Index Dew Point Humidity Pressure Visibility Wind Dir Wind Speed Gust Speed Precip Events Conditions
12:15 AM 66.2 °F - 64.4 °F 94% 30.01 in 7.0 mi SSW 4.6 mph - N/A   Clear
12:35 AM 68.0 °F - 66.2 °F 94% 30.01 in 7.0 mi South 5.8 mph - N/A   Clear
12:55 AM 68.0 °F - 66.2 °F 94% 30.00 in 7.0 mi South 6.9 mph - N/A   Clear
1:15 AM 68.0 °F - 68.0 °F 100% 30.00 in 7.0 mi South 6.9 mph - N/A   Clear
1:35 AM 68.0 °F - 66.2 °F 94% 29.99 in 7.0 mi South 5.8 mph - N/A   Clear
1:55 AM 68.0 °F - 68.0 °F 100% 29.99 in 7.0 mi South 8.1 mph - N/A   Clear
2:15 AM 69.8 °F - 68.0 °F 94% 29.98 in 7.0 mi South 6.9 mph - N/A   Clear
2:35 AM 69.8 °F - 68.0 °F 94% 29.98 in 7.0 mi South 9.2 mph - N/A   Clear
2:55 AM 69.8 °F - 68.0 °F 94% 29.98 in 7.0 mi South 9.2 mph - N/A   Clear
3:15 AM 69.8 °F - 68.0 °F 94% 29.98 in 7.0 mi South 8.1 mph - N/A   Clear
3:35 AM 69.8 °F - 68.0 °F 94% 29.98 in 7.0 mi South 9.2 mph - N/A   Clear
3:55 AM 69.8 °F - 68.0 °F 94% 29.98 in 7.0 mi SSW 5.8 mph - N/A   Clear
4:15 AM 69.8 °F - 68.0 °F 94% 29.98 in 7.0 mi South 6.9 mph - N/A   Scattered Clouds
4:35 AM 69.8 °F - 69.8 °F 100% 29.97 in 7.0 mi South 8.1 mph - N/A   Scattered Clouds
4:55 AM 69.8 °F - 69.8 °F 100% 29.96 in 7.0 mi South 8.1 mph - N/A   Scattered Clouds
5:15 AM 69.8 °F - 69.8 °F 100% 29.97 in 7.0 mi South 9.2 mph - N/A   Mostly Cloudy
5:35 AM 69.8 °F - 69.8 °F 100% 29.98 in 7.0 mi SSW 6.9 mph - N/A   Overcast
5:55 AM 69.8 °F - 69.8 °F 100% 29.98 in 7.0 mi South 6.9 mph - N/A   Overcast
6:15 AM 69.8 °F - 69.8 °F 100% 29.98 in 7.0 mi South 9.2 mph - N/A   Overcast
6:35 AM 69.8 °F - 69.8 °F 100% 29.98 in 7.0 mi SSW 5.8 mph - N/A   Overcast
6:55 AM 69.8 °F - 69.8 °F 100% 29.98 in 7.0 mi South 8.1 mph - N/A   Overcast
7:15 AM 69.8 °F - 69.8 °F 100% 29.98 in 7.0 mi South 9.2 mph - N/A   Overcast
7:35 AM 71.6 °F - 69.8 °F 94% 29.99 in 4.0 mi South 13.8 mph 17.3 mph N/A   Overcast
7:55 AM 71.6 °F - 69.8 °F 94% 29.99 in 4.0 mi South 10.4 mph - N/A   Overcast
8:15 AM 71.6 °F - 71.6 °F 100% 30.00 in 4.0 mi South 6.9 mph - N/A   Overcast
8:35 AM 71.6 °F - 71.6 °F 100% 30.00 in 4.0 mi South 6.9 mph - N/A   Overcast
8:55 AM 71.6 °F - 71.6 °F 100% 30.01 in 4.0 mi South 9.2 mph - N/A   Overcast
9:15 AM 71.6 °F - 71.6 °F 100% 30.01 in 4.0 mi South 12.7 mph - N/A   Overcast
9:35 AM 71.6 °F - 71.6 °F 100% 30.01 in 5.0 mi South 13.8 mph 18.4 mph N/A   Overcast
9:55 AM 71.6 °F - 71.6 °F 100% 30.01 in 7.0 mi SSW 15.0 mph - N/A   Overcast
10:15 AM 73.4 °F - 71.6 °F 94% 30.01 in 7.0 mi South 12.7 mph 17.3 mph N/A   Overcast
10:35 AM 75.2 °F - 69.8 °F 83% 30.01 in 10.0 mi SSW 16.1 mph 23.0 mph N/A   Overcast
10:55 AM 75.2 °F - 69.8 °F 83% 30.01 in 10.0 mi South 15.0 mph - N/A   Overcast
11:15 AM 77.0 °F - 71.6 °F 83% 30.00 in 10.0 mi South 15.0 mph - N/A   Mostly Cloudy
11:35 AM 78.8 °F - 71.6 °F 78% 29.99 in 10.0 mi South 11.5 mph - N/A   Mostly Cloudy
11:55 AM 80.6 °F 83.9 °F 69.8 °F 70% 29.98 in 10.0 mi South 18.4 mph - N/A   Scattered Clouds
12:15 PM 82.4 °F 86.3 °F 69.8 °F 66% 29.97 in 10.0 mi South 13.8 mph 23.0 mph N/A   Scattered Clouds
12:35 PM 82.4 °F 86.3 °F 69.8 °F 66% 29.96 in 10.0 mi South 15.0 mph 23.0 mph N/A   Scattered Clouds
12:55 PM 82.4 °F 86.3 °F 69.8 °F 66% 29.95 in 10.0 mi South 13.8 mph 23.0 mph N/A   Scattered Clouds
1:15 PM 82.4 °F 86.3 °F 69.8 °F 66% 29.94 in 10.0 mi South 9.2 mph - N/A   Mostly Cloudy
1:55 PM 84.2 °F 87.3 °F 68.0 °F 58% 29.91 in 10.0 mi South 17.3 mph 21.9 mph N/A   Mostly Cloudy
2:15 PM 86.0 °F 88.2 °F 66.2 °F 51% 29.91 in 10.0 mi SSW 19.6 mph - N/A   Mostly Cloudy
2:35 PM 86.0 °F 88.2 °F 66.2 °F 51% 29.89 in 10.0 mi SSW 10.4 mph 16.1 mph N/A   Scattered Clouds
2:55 PM 87.8 °F 89.4 °F 64.4 °F 46% 29.89 in 10.0 mi SW 16.1 mph 21.9 mph N/A   Scattered Clouds
3:15 PM 87.8 °F 88.5 °F 62.6 °F 43% 29.88 in 10.0 mi SW 16.1 mph 24.2 mph N/A   Scattered Clouds
3:35 PM 87.8 °F 88.5 °F 62.6 °F 43% 29.88 in 10.0 mi WSW 18.4 mph 28.8 mph N/A   Clear
3:55 PM 87.8 °F 88.5 °F 62.6 °F 43% 29.89 in 10.0 mi WSW 21.9 mph 25.3 mph N/A   Clear
4:15 PM 86.0 °F 86.6 °F 62.6 °F 45% 29.89 in 10.0 mi SW 17.3 mph - N/A   Clear
4:35 PM 86.0 °F 86.6 °F 62.6 °F 45% 29.89 in 10.0 mi SW 18.4 mph 25.3 mph N/A   Scattered Clouds
4:55 PM 86.0 °F 86.6 °F 62.6 °F 45% 29.89 in 10.0 mi SW 17.3 mph 25.3 mph N/A   Clear
5:15 PM 84.2 °F 85.0 °F 62.6 °F 48% 29.89 in 10.0 mi SW 16.1 mph 27.6 mph N/A   Clear
5:35 PM 82.4 °F 83.9 °F 64.4 °F 54% 29.89 in 10.0 mi SW 12.7 mph - N/A   Clear
5:55 PM 80.6 °F 82.3 °F 64.4 °F 58% 29.90 in 10.0 mi SW 13.8 mph 17.3 mph N/A   Clear
6:15 PM 78.8 °F - 64.4 °F 61% 29.90 in 10.0 mi WSW 11.5 mph - N/A   Clear
6:35 PM 78.8 °F - 64.4 °F 61% 29.91 in 10.0 mi WSW 9.2 mph - N/A   Clear
6:55 PM 77.0 °F - 64.4 °F 65% 29.91 in 10.0 mi SW 8.1 mph - N/A   Clear
7:15 PM 75.2 °F - 64.4 °F 69% 29.92 in 10.0 mi SW 6.9 mph - N/A   Clear
7:35 PM 73.4 °F - 64.4 °F 73% 29.92 in 10.0 mi SSW 6.9 mph - N/A   Clear
7:55 PM 73.4 °F - 66.2 °F 78% 29.93 in 10.0 mi SSW 6.9 mph - N/A   Clear
8:15 PM 71.6 °F - 64.4 °F 78% 29.94 in 10.0 mi SW 5.8 mph - N/A   Clear
8:35 PM 71.6 °F - 66.2 °F 83% 29.95 in 10.0 mi SW 5.8 mph - N/A   Clear
8:55 PM 71.6 °F - 66.2 °F 83% 29.96 in 10.0 mi SSW 5.8 mph - N/A   Clear
9:15 PM 71.6 °F - 66.2 °F 83% 29.96 in 10.0 mi SSW 4.6 mph - N/A   Clear
9:35 PM 69.8 °F - 66.2 °F 88% 29.96 in 10.0 mi SSW 4.6 mph - N/A   Clear
9:55 PM 71.6 °F - 68.0 °F 88% 29.96 in 10.0 mi SW 4.6 mph - N/A   Scattered Clouds
10:15 PM 69.8 °F - 68.0 °F 94% 29.96 in 10.0 mi SSW 5.8 mph - N/A   Scattered Clouds
10:35 PM 69.8 °F - 68.0 °F 94% 29.97 in 10.0 mi SSW 5.8 mph - N/A   Mostly Cloudy
10:55 PM 69.8 °F - 68.0 °F 94% 29.97 in 10.0 mi SSW 4.6 mph - N/A   Mostly Cloudy
11:15 PM 69.8 °F - 68.0 °F 94% 29.97 in 10.0 mi SW 5.8 mph - N/A   Mostly Cloudy
11:35 PM 68.0 °F - 62.6 °F 83% 29.99 in 10.0 mi NNW 10.4 mph 20.7 mph N/A   Mostly Cloudy
11:55 PM 68.0 °F - 62.6 °F 83% 30.00 in 10.0 mi NNW 9.2 mph - N/A   Overcast